Tracking 19854 objects as of 22-Sep-2019
HD Live streaming from Space Station
objects crossing your sky now

DELTA 1 DEB

Track DELTA 1 DEB now!
10-day predictions


NORAD ID: 12255
Int'l Code: 1978-026CY
Perigee: 886.5 km
Apogee: 909.5 km
Inclination: 98.7 °
Period: 102.8 minutes
Semi major axis: 7269 km
RCS: 0.0045 m2 (small)
Launch date: March 5, 1978
Source: United States (US)
Launch site: AIR FORCE WESTERN TEST RANGE (AFWTR)

Note: This is SATELLITE DEBRIS
aabbcc
Your satellite tracking list
Your tracking list is empty




NASA's NSSDC Master Catalog

Two Line Element Set (TLE):
1 12255U 78026CY  19265.80671389  .00000096  00000-0  92005-4 0  9998
2 12255  98.6825 257.9422 0015878  38.0818  83.5083 14.00846652285258
Source of the keplerian elements: AFSPC